| 
				
				
				
					
						
					 | 
				
				
				
					
					
					Asteroid 2011 TL5
					
					
					
					
						
					
					
						
							(Preview)
						
						
						
						
							
						
							
								Orbital elements:
2011 TL5                                                 Earth MOID = 0.2910 AU
Epoch 2011 Aug. 27.0 TT = JDT 2455800.5                 MPC
M   1.76356              (2000.0)            P               Q
n   0.40747709     Peri.  324.30012     +0.91487299     +0.39385665
a   1.8019134      Node    13.39767     -0.21946646     +0.66972941
e   0.3037397      Incl.   22.53292     -0.33888330     +0.62955497
P   2.42           H   21.0           G   0.... 
							 
							
						 
						
					
				 | 
				
					
						Blobrana
					 | 
				
				
					
						0
					 | 
				
				
				
					
						
					 | 
				
				
					
						
					 | 
				
			
		
			
			
				
				
					
						 
					 | 
				
				
				
					
						
					 | 
				
				
				
					
					
					Asteroid 2011 TH5
					
					
					
					
						
					
					
						
							(Preview)
						
						
						
						
							
						
							
								Orbital elements:
2011 TH5                                                 Earth MOID = 0.0538 AU
Epoch 2011 Aug. 27.0 TT = JDT 2455800.5                 MPC
M 346.19840              (2000.0)            P               Q
n   0.54246120     Peri.  167.12167     +0.99825688     +0.05534506
a   1.4889848      Node   189.77514     -0.05889662     +0.95650350
e   0.2925760      Incl.    6.93390     +0.00379242     +0.28642272
P   1.82           H   26.5           G... 
							 
							
						 
						
					
				 | 
				
					
						Blobrana
					 | 
				
				
					
						0
					 | 
				
				
				
					
						
					 | 
				
				
					
						
					 | 
				
			
		
			
			
				
				
					
						 
					 | 
				
				
				
					
						
					 | 
				
				
				
					
					
					Asteroid 2011 TJ5
					
					
					
					
						
					
					
						
							(Preview)
						
						
						
						
							
						
							
								Orbital elements:
2011 TJ5                                                 Earth MOID = 0.0381 AU
Epoch 2011 Aug. 27.0 TT = JDT 2455800.5                 MPC
M 307.36723              (2000.0)            P               Q
n   0.55478943     Peri.   70.15549     +0.17839948     -0.98348005
a   1.4668440      Node     9.72175     +0.82109764     +0.13162384
e   0.4058898      Incl.   10.46430     +0.54219212     +0.12426647
P   1.78           H   26.1           G   0....                      
							 
							
						 
						
					
				 | 
				
					
						Blobrana
					 | 
				
				
					
						0
					 | 
				
				
				
					
						
					 | 
				
				
					
						
					 | 
				
			
		
			
			
				
				
					
						 
					 | 
				
				
				
					
						
					 | 
				
				
				
					
					
					Asteroid 2011 TK5
					
					
					
					
						
					
					
						
							(Preview)
						
						
						
						
							
						
							
								Orbital elements:
2011 TK5                                                 Earth MOID = 0.1154 AU
Epoch 2011 Aug. 27.0 TT = JDT 2455800.5                 MPC
M 165.56307              (2000.0)            P               Q
n   1.24993478     Peri.  349.01792     -0.99587618     -0.08775933
a   0.8535150      Node   186.08981     +0.09053985     -0.97749548
e   0.4321006      Incl.   12.52055     -0.00575946     -0.19183559
P   0.79           H   22.7...                                    
							 
							
						 
						
					
				 | 
				
					
						Blobrana
					 | 
				
				
					
						0
					 | 
				
				
				
					
						
					 | 
				
				
					
						
					 | 
				
			
		
			
			
				
				
					
						 
					 | 
				
				
				
					
						
					 | 
				
				
				
					
					
					Asteroid 2011 TA4
					
					
					
					
						
					
					
						
							(Preview)
						
						
						
						
							
						
							
								Orbital elements:
2011 TA4                                                 Earth MOID = 0.1000 AU
Epoch 2011 Aug. 27.0 TT = JDT 2455800.5                 MPC
M 348.48048              (2000.0)            P               Q
n   0.18213939     Peri.   20.76087     +0.84749530     -0.52633635
a   3.0822425      Node    11.75285     +0.42691685     +0.59896430
e   0.6502500      Incl.   19.71554     +0.31542625     +0.60349964
P   5.41           H   21.0           G   0...                      
							 
							
						 
						
					
				 | 
				
					
						Blobrana
					 | 
				
				
					
						0
					 | 
				
				
				
					
						
					 | 
				
				
					
						
					 | 
				
			
		
			
			
				
				
					
						 
					 | 
				
				
				
					
						
					 | 
				
				
				
					
					
					Asteroid 2011 TG2
					
					
					
					
						
					
					
						
							(Preview)
						
						
						
						
							
						
							
								Orbital elements:
2011 TG2                                                 Earth MOID = 0.0511 AU
Epoch 2011 Aug. 27.0 TT = JDT 2455800.5                 MPC
M  39.18152              (2000.0)            P               Q
n   1.16625681     Peri.  218.57968     -0.63085595     +0.77166526
a   0.8938677      Node    12.99781     -0.59215422     -0.41141174
e   0.5150423      Incl.   21.09604     -0.50137227     -0.48504959
P   0.85           H   20.4           G   0... 
							 
							
						 
						
					
				 | 
				
					
						Blobrana
					 | 
				
				
					
						0
					 | 
				
				
				
					
						
					 | 
				
				
					
						
					 | 
				
			
		
			
			
				
				
					
						 
					 | 
				
				
				
					
						
					 | 
				
				
				
					
					
					Asteroid 2011 QG9
					
					
					
					
						
					
					
						
							(Preview)
						
						
						
						
							
						
							
								Orbital elements:
2011 QG9                                                 Earth MOID = 0.1929 AU
Epoch 2011 Aug. 27.0 TT = JDT 2455800.5                 MPC
M 347.72677              (2000.0)            P               Q
n   0.21721773     Peri.   73.19300     +0.90165116     -0.40432999
a   2.7407696      Node   310.37368     +0.27847476     +0.81427383
e   0.6081266      Incl.   11.61897     +0.33087308     +0.41650378
P   4.54           H   20.0           G... 
							 
							
						 
						
					
				 | 
				
					
						Blobrana
					 | 
				
				
					
						1
					 | 
				
				
				
					
						
					 | 
				
				
					
						
					 | 
				
			
		
			
			
				
				
					
						 
					 | 
				
				
				
					
						
					 | 
				
				
				
					
					
					Asteroid 2006 VY13
					
					
					
					
						
					
					
						
							(Preview)
						
						
						
						
							
						
							
								Orbital elements:
2006 VY13                                                Earth MOID = 0.1421 AU
Epoch 2011 Aug. 27.0 TT = JDT 2455800.5                 MPC
M 326.71155              (2000.0)            P               Q
n   0.19695058     Peri.   17.59282     -0.92317788     -0.38077806
a   2.9257095      Node   139.89891     +0.34214258     -0.87624396
e   0.6133187      Incl.    4.67029     +0.17516009     -0.29530425
P   5.00           H   17.3           G... 
							 
							
						 
						
					
				 | 
				
					
						Blobrana
					 | 
				
				
					
						0
					 | 
				
				
				
					
						
					 | 
				
				
					
						
					 | 
				
			
		
			
			
				
				
					
						 
					 | 
				
				
				
					
						
					 | 
				
				
				
					
					
					KBO (139775) 2001 QG298
					
					
					
					
						
					
					
						
							(Preview)
						
						
						
						
							
						
							
								Title: A Change in the Lightcurve of Kuiper Belt Contact Binary (139775) 2001 QG298 Authors: Pedro Lacerda  New observations show that the lightcurve of Kuiper belt contact binary (139775) 2001 QG298 has changed substantially since the first observations in 2003. The 2010 lightcurve has a peak-t... 
							 
							
						 
						
					
				 | 
				
					
						Blobrana
					 | 
				
				
					
						1
					 | 
				
				
				
					
						
					 | 
				
				
					
						
					 | 
				
			
		
			
			
				
				
					
						 
					 | 
				
				
				
					
						 
					 | 
				
				
				
					
					
					Asteroid 2001 GR2
					
					
					
					
						
					
					
						
							(Preview)
						
						
						
						
							
						
							
								Orbital elements:
2001 GR2                                            PHA, Earth MOID = 0.0135 AU
Epoch 2011 Aug. 27.0 TT = JDT 2455800.5                 MPC
M   5.89927              (2000.0)            P               Q
n   0.38726947     Peri.   99.16518     +0.33181588     +0.94261313
a   1.8640628      Node   190.44447     -0.92581778     +0.31784667
e   0.6215085      Incl.   11.81915     -0.18099631     +0.10224466
P   2.55           H   21.... 
							 
							
						 
						
					
				 | 
				
					
						Blobrana
					 | 
				
				
					
						0
					 | 
				
				
				
					
						
					 | 
				
				
					
						
					 | 
				
			
		
			
			
				
				
					
						 
					 | 
				
				
				
					
						
					 | 
				
				
				
					
					
					Asteroid 2011 TP
					
					
					
					
						
					
					
						
							(Preview)
						
						
						
						
							
						
							
								Orbital elements:
2011 TP                                                  Earth MOID = 0.0173 AU
Epoch 2011 Aug. 27.0 TT = JDT 2455800.5                 MPC
M 329.47329              (2000.0)            P               Q
n   0.43234713     Peri.   43.23231     +0.63274448     -0.77404610
a   1.7321320      Node     7.60861     +0.65728364     +0.52179241
e   0.4562195      Incl.    9.59490     +0.40940523     +0.35858795
P   2.28           H   26.5           G   0.15...                      
							 
							
						 
						
					
				 | 
				
					
						Blobrana
					 | 
				
				
					
						0
					 | 
				
				
				
					
						
					 | 
				
				
					
						
					 | 
				
			
		
